Regional Weather Roundup
Issued by NWS

Home | Current Version | Previous Version | Graphics & Text | Print | Product List | Glossary On
Versions: 1 2 3 4 5 6 7 8 9 10 11 12 13 14 15 16 17 18 19 20 21 22 23 24 25 26 27 28 29 30 31 32 33 34 35 36 37 38 39 40 41 42 43 44 45 46 47 48 49 50
000
ASUS43 KLMK 270102
RWRKY
KENTUCKY REGIONAL WEATHER ROUNDUP
NATIONAL WEATHER SERVICE LOUISVILLE KY
800 PM EST MON JAN 26 2015

NOTE "FAIR" INDICATES FEW OR NO CLOUDS BELOW 12,000 FEET
WITH NO SIGNIFICANT WEATHER AND/OR OBSTRUCTIONS TO VISIBILITY.

KYZ001>023-026-027-061>063-070>075-270200-
WESTERN AND SOUTH CENTRAL KENTUCKY

CITY           SKY/WX    TMP DP  RH WIND       PRES   REMARKS
PADUCAH        CLOUDY    36  31  82 CALM      29.97S
HENDERSON      CLOUDY    30  27  86 CALM      29.98F
OWENSBORO      MOCLDY    29  28  96 CALM      29.99F
HOPKINSVILLE   CLOUDY    36  29  78 NW5       29.97S WCI  32
BOWLING GREEN  LGT SNOW  31  28  89 CALM      29.99R FOG
GLASGOW        NOT AVBL
$$

KYZ024-025-028>034-038-045-046-053-270200-
NORTH CENTRAL KENTUCKY

CITY           SKY/WX    TMP DP  RH WIND       PRES   REMARKS
LOUISVILLE/SDF CLOUDY    31  25  78 W6        29.96S WCI  25
LOUISVILLE/LOU CLOUDY    31  23  72 W5        29.96S WCI  26
FORT KNOX      NOT AVBL
$$

KYZ035>037-039>044-047>052-055>060-089>105-270200-
NORTHEAST KENTUCKY

CITY           SKY/WX    TMP DP  RH WIND       PRES   REMARKS
LEXINGTON      CLOUDY    28  21  75 CALM      29.94S
COVINGTON      CLOUDY    27  18  69 NW3       29.93R
FRANKFORT      CLOUDY    29  21  72 CALM      29.93F
$$

KYZ054-064>069-076>088-106>120-270200-
SOUTHEAST KENTUCKY

CITY           SKY/WX    TMP DP  RH WIND       PRES   REMARKS
JACKSON        CLOUDY    26  22  84 VRB3      29.92S
LONDON         CLOUDY    30  21  69 W5        29.94R WCI  25
SOMERSET       NOT AVBL
MIDDLESBORO    NOT AVBL
MONTICELLO     LGT SNOW  30  28  92 CALM      29.99R FOG
$$



USA.gov is the U.S. government's official web portal to all federal, state and local government web resources and services.